Printer-friendly version

IAU Minor Planet Center

Minor Planet Center

MPEC 2006-C51 : 2006 CT10

The following Minor Planet Electronic Circular may be linked-to from your own Web pages, but must not otherwise be redistributed electronically.


Read MPEC 2006-C50 Read MPEC 2006-C52


M.P.E.C. 2006-C51                                Issued 2006 Feb.  9, 14:04 UT

     The Minor Planet Electronic Circulars contain information on unusual
         minor planets and routine data on comets.  They are published
   on behalf of Commission 20 of the International Astronomical Union by the
          Minor Planet Center, Smithsonian Astrophysical Observatory,
                          Cambridge, MA 02138, U.S.A.

                  Supported in part by the Brinson Foundation
                  Supported in part by the TABASGO Foundation
             Prepared using the Tamkin Foundation Computer Network

                              MPC@CFA.HARVARD.EDU
          URL http://cfa-www.harvard.edu/iau/mpc.html  ISSN 1523-6714

                                   2006 CT10

Observations:
     K06C10T* C2006 02 07.48261 16 26 16.94 +42 50 12.7          19.6   EC051704
     K06C10T  C2006 02 07.50957 16 26 19.85 +42 48 31.6          20.2   EC051704
     K06C10T  C2006 02 07.52241 16 26 21.13 +42 47 45.1          20.2   EC051704
     K06C10T  C2006 02 07.53518 16 26 22.51 +42 46 56.0          20.1   EC051704
     K06C10T  C2006 02 08.22462 16 27 49.37 +42 03 24.8                 EC051J95
     K06C10T  C2006 02 08.22729 16 27 49.64 +42 03 14.8                 EC051J95
     K06C10T  C2006 02 08.22997 16 27 49.90 +42 03 05.5          19.4 R EC051J95
     K06C10T 5C2006 02 09.55683 16 30 18.06 +40 47 10.0          19.7 R EC051673
     K06C10T 5C2006 02 09.55961 16 30 18.27 +40 47 01.1                 EC051673
     K06C10T 5C2006 02 09.56620 16 30 18.73 +40 46 40.4                 EC051673
     K06C10T 5C2006 02 09.57280 16 30 19.23 +40 46 19.7                 EC051673

Observer details:
673 Table Mountain Observatory, Wrightwood.  Observer J. Young.  0.6-m f/16
    Cassegrain + CCD.
704 Lincoln Laboratory ETS, New Mexico.  Observers M. Bezpalko, L. Manguso,
    D. Torres, R. Kracke, M. Blythe, H. Love.  Measurers J. Stuart, J. Kommers.
    1.0-m f/2.15 reflector + CCD.
J95 Great Shefford.  Observer P. Birtwhistle.  0.40-m f/6.0 Schmidt-Cassegrain
    + CCD.

Orbital elements:
2006 CT10                                           PHA, Earth MOID = 0.0496 AU
Epoch 2006 Mar. 6.0 TT = JDT 2453800.5                  MPC
M   5.33038              (2000.0)            P               Q
n   0.19594158     Peri.   30.04596     -0.77209495     -0.60023585
a   2.9357449      Node   111.58056     +0.52915764     -0.78913622
e   0.6617053      Incl.   12.97414     +0.35193975     -0.13031098
P   5.03           H   21.1           G   0.15           U   8
Residuals in seconds of arc
060207 704  0.1+  0.2+    060208 J95  0.1+  0.8+    060209 673  0.4+  0.3+
060207 704  0.5+  0.1-    060208 J95  0.2+  0.3+    060209 673  0.1-  0.5+
060207 704  0.2-  1.6+    060208 J95  0.1+  0.5+    060209 673  0.1-  0.8+
060207 704  0.6+  0.6+    060209 673  0.5+  0.4+

Ephemeris:
2006 CT10                a,e,i = 2.87, 0.65, 13                  q = 0.9930
Date    TT    R. A. (2000) Decl.     Delta      r     Elong.  Phase     V
2006 02 04    16 16.22   +47 16.5    0.108    0.994    91.2    82.6    19.1
2006 02 14    16 36.30   +37 22.8    0.165    0.998    88.9    81.6    20.0
2006 02 24    16 43.02   +32 34.9    0.220    1.021    92.0    75.5    20.5
2006 03 06    16 44.02   +29 45.5    0.270    1.062    97.5    67.8    20.8
2006 03 16    16 40.14   +27 47.8    0.315    1.117   104.6    59.5    21.0
2006 03 26    16 31.34   +26 08.8    0.356    1.183   112.9    51.0    21.1
2006 04 05    16 17.81   +24 23.1    0.397    1.257   122.1    42.4    21.2
2006 04 15    16 00.95   +22 11.0    0.441    1.337   131.6    34.1    21.4
2006 04 25    15 42.94   +19 25.8    0.494    1.421   140.2    27.0    21.5
2006 05 05    15 26.16   +16 11.3    0.560    1.507   146.3    21.8    21.8

Timothy B. Spahr             (C) Copyright 2006 MPC           M.P.E.C. 2006-C51

Read MPEC 2006-C50 Read MPEC 2006-C52


Our Web policy. Index to the CBAT/MPC/ICQ pages.


Valid HTML 4.01!